^^
Station Historical Data
 
Daily Summary for June 23, 2017 Units:  English    Metric   Both
« Previous Day
Next Day »
Daily Weekly Monthly Yearly Custom
  Current: High: Low: Average:
Temperature: 70.3 °F 81.0 °F 66.9 °F 73.5 °F
Dew Point: 68.5 °F 73.4 °F 66.4 °F 68.5 °F
Humidity: 94% 99% 63% 86%
Wind Speed: 0.0mph 4.0mph 0.0mph 0.3mph
Wind Gust: 1.0mph 5.0mph - -
WindCalm - - South
Pressure: 29.94 in 30.13 in 29.89 in -
Precipitation: 0.38 in      
Historical Graphs
 
 
Tabular Data for June 23, 2017
Time Temperature Dew Point Pressure Wind Wind Speed Wind Gust Humidity Rainfall Rate (Hourly)
00:03 68.2 °F 67.6 °F 30.13 in Calm     98% 0.38 in
00:08 68.2 °F 67.6 °F 30.13 in Calm     98% 0.39 in
00:13 68.2 °F 67.6 °F 30.12 in Calm   1.0 mph 98% 0.38 in
00:18 68.2 °F 67.6 °F 30.12 in Calm     98% 0.41 in
00:23 68.2 °F 67.6 °F 30.12 in Calm     98% 0.37 in
00:28 68.4 °F 68.0 °F 30.12 in Calm   2.0 mph 99% 0.27 in
00:33 68.4 °F 68.0 °F 30.12 in Calm     99% 0.21 in
00:38 68.4 °F 68.0 °F 30.12 in Calm     99% 0.18 in
00:43 68.4 °F 68.0 °F 30.12 in Calm     99% 0.15 in
00:48 68.4 °F 68.0 °F 30.12 in Calm     99% 0.12 in
00:53 68.4 °F 68.0 °F 30.12 in Calm     99% 0.08 in
00:58 68.4 °F 68.0 °F 30.11 in Calm     99% 0.08 in
01:03 68.4 °F 68.0 °F 30.11 in Calm   1.0 mph 99% 0.07 in
01:08 68.4 °F 68.0 °F 30.11 in NNE 0.9 mph 2.0 mph 99% 0.07 in
01:13 68.2 °F 67.8 °F 30.11 in Calm     99% 0.08 in
01:18 68.2 °F 67.8 °F 30.11 in Calm   1.0 mph 99% 0.07 in
01:23 68.2 °F 67.8 °F 30.11 in Calm     99% 0.10 in
01:29 68.2 °F 67.8 °F 30.11 in Calm     99% 0.17 in
01:34 68.4 °F 68.0 °F 30.11 in Calm     99% 0.23 in
01:39 68.4 °F 68.0 °F 30.11 in Calm   1.0 mph 99% 0.23 in
01:44 68.2 °F 67.8 °F 30.11 in Calm     99% 0.23 in
01:49 68.2 °F 67.8 °F 30.11 in Calm   1.0 mph 99% 0.23 in
01:54 68.4 °F 68.0 °F 30.11 in Calm   2.0 mph 99% 0.23 in
01:59 68.2 °F 67.8 °F 30.11 in Calm     99% 0.23 in
02:04 68.2 °F 67.8 °F 30.11 in NNW 2.0 mph 2.0 mph 99% 0.23 in
02:09 68.2 °F 67.8 °F 30.11 in East 0.9 mph 1.0 mph 99% 0.21 in
02:14 68.2 °F 67.8 °F 30.10 in ESE 2.0 mph 2.0 mph 99% 0.21 in
02:19 68.4 °F 68.0 °F 30.10 in Calm   1.0 mph 99% 0.19 in
02:24 68.4 °F 68.0 °F 30.09 in West 0.9 mph 2.0 mph 99% 0.13 in
02:26 68.4 °F 68.0 °F 30.09 in Calm   1.0 mph 99% 0.10 in
02:31 68.4 °F 68.0 °F 30.09 in Calm   1.0 mph 99% 0.03 in
02:36 68.4 °F 68.0 °F 30.09 in Calm   1.0 mph 99% 0.01 in
02:41 68.4 °F 68.0 °F 30.09 in Calm   1.0 mph 99% 0.01 in
02:46 68.4 °F 68.0 °F 30.09 in East 0.9 mph 2.0 mph 99% 0.01 in
02:47 68.4 °F 68.0 °F 30.09 in Calm   3.0 mph 99% 0.01 in
02:53 68.4 °F 68.0 °F 30.09 in North 0.9 mph 2.0 mph 99% 0.01 in
02:59 68.4 °F 68.0 °F 30.09 in Calm   1.0 mph 99% 0.01 in
03:04 68.4 °F 68.0 °F 30.09 in Calm   1.0 mph 99% 0.01 in
03:09 68.4 °F 68.0 °F 30.08 in NE 0.9 mph 1.0 mph 99% 0.01 in
03:14 68.4 °F 68.0 °F 30.08 in Calm   1.0 mph 99% 0.01 in
03:19 68.4 °F 68.0 °F 30.08 in Calm   1.0 mph 99% 0.01 in
03:24 68.2 °F 67.8 °F 30.08 in Calm   1.0 mph 99% 0.01 in
03:29 68.2 °F 67.8 °F 30.08 in Calm   1.0 mph 99% 0.01 in
03:34 68.2 °F 67.8 °F 30.08 in Calm   1.0 mph 99% 0.01 in
03:39 68.2 °F 67.8 °F 30.08 in Calm   3.0 mph 99% 0.00 in
03:44 68.2 °F 67.8 °F 30.08 in SW 0.9 mph 2.0 mph 99% 0.00 in
03:49 68.2 °F 67.8 °F 30.08 in Calm   1.0 mph 99% 0.00 in
03:54 68.2 °F 67.8 °F 30.07 in SSE 0.9 mph 2.0 mph 99% 0.00 in
04:00 68.2 °F 67.8 °F 30.07 in WSW 0.9 mph 1.0 mph 99% 0.00 in
04:05 68.2 °F 67.8 °F 30.07 in Calm   1.0 mph 99% 0.00 in
04:10 68.2 °F 67.8 °F 30.07 in SSW 0.9 mph 1.0 mph 99% 0.00 in
04:15 68.2 °F 67.8 °F 30.07 in Calm   1.0 mph 99% 0.00 in
04:20 68.2 °F 67.8 °F 30.07 in Calm     99% 0.00 in
04:25 68.2 °F 67.8 °F 30.08 in Calm   1.0 mph 99% 0.00 in
04:30 68.0 °F 67.6 °F 30.07 in SSW 0.9 mph 2.0 mph 99% 0.00 in
04:35 67.8 °F 67.5 °F 30.07 in Calm     99% 0.00 in
04:40 68.0 °F 67.6 °F 30.07 in SSE 0.9 mph 2.0 mph 99% 0.00 in
04:45 68.0 °F 67.6 °F 30.07 in Calm   1.0 mph 99% 0.00 in
04:50 68.0 °F 67.6 °F 30.06 in SSE 2.0 mph 2.0 mph 99% 0.00 in
04:55 68.0 °F 67.6 °F 30.06 in Calm   1.0 mph 99% 0.00 in
05:00 68.0 °F 67.6 °F 30.06 in Calm   1.0 mph 99% 0.00 in
05:05 68.0 °F 67.5 °F 30.06 in Calm     98% 0.00 in
05:10 68.0 °F 67.5 °F 30.06 in Calm     98% 0.00 in
05:15 68.0 °F 67.5 °F 30.06 in Calm     98% 0.00 in
05:20 67.8 °F 67.3 °F 30.06 in Calm     98% 0.00 in
05:32 67.8 °F 67.3 °F 30.07 in Calm   1.0 mph 98% 0.00 in
05:33 67.8 °F 67.3 °F 30.07 in Calm     98% 0.00 in
05:38 67.6 °F 67.1 °F 30.07 in East 0.9 mph 1.0 mph 98% 0.00 in
05:43 67.8 °F 67.3 °F 30.07 in Calm   1.0 mph 98% 0.00 in
05:48 67.8 °F 67.3 °F 30.07 in Calm     98% 0.00 in
05:53 67.8 °F 67.3 °F 30.08 in Calm   1.0 mph 98% 0.00 in
05:58 67.8 °F 67.3 °F 30.07 in Calm     98% 0.00 in
06:03 67.6 °F 67.1 °F 30.07 in SSW 0.9 mph 2.0 mph 98% 0.00 in
06:08 67.6 °F 67.1 °F 30.07 in Calm   2.0 mph 98% 0.00 in
06:13 67.6 °F 67.1 °F 30.07 in Calm   1.0 mph 98% 0.00 in
06:18 67.6 °F 67.1 °F 30.07 in SSW 0.9 mph 1.0 mph 98% 0.00 in
06:23 67.5 °F 66.9 °F 30.08 in Calm   3.0 mph 98% 0.00 in
06:28 67.5 °F 66.9 °F 30.08 in Calm   1.0 mph 98% 0.00 in
06:33 67.5 °F 66.9 °F 30.08 in Calm   2.0 mph 98% 0.00 in
06:38 67.5 °F 66.9 °F 30.08 in Calm     98% 0.00 in
06:43 67.5 °F 66.9 °F 30.08 in Calm     98% 0.00 in
06:48 67.5 °F 66.9 °F 30.08 in SSE 2.0 mph 3.0 mph 98% 0.00 in
06:53 67.3 °F 66.7 °F 30.08 in Calm   1.0 mph 98% 0.00 in
06:58 67.3 °F 66.7 °F 30.08 in Calm   1.0 mph 98% 0.00 in
07:03 67.1 °F 66.6 °F 30.08 in Calm     98% 0.00 in
07:08 67.1 °F 66.6 °F 30.08 in Calm   1.0 mph 98% 0.00 in
07:09 67.1 °F 66.6 °F 30.08 in Calm   1.0 mph 98% 0.00 in
07:14 67.1 °F 66.6 °F 30.08 in Calm   1.0 mph 98% 0.00 in
07:19 67.1 °F 66.6 °F 30.08 in NE 0.9 mph 3.0 mph 98% 0.00 in
07:24 66.9 °F 66.4 °F 30.08 in SE 0.9 mph 3.0 mph 98% 0.00 in
07:29 66.9 °F 66.4 °F 30.08 in Calm     98% 0.00 in
07:34 66.9 °F 66.4 °F 30.08 in Calm   1.0 mph 98% 0.00 in
07:39 66.9 °F 66.4 °F 30.08 in Calm   1.0 mph 98% 0.00 in
07:44 66.9 °F 66.4 °F 30.08 in Calm   2.0 mph 98% 0.00 in
07:49 66.9 °F 66.4 °F 30.08 in SSE 0.9 mph 1.0 mph 98% 0.00 in
07:54 66.9 °F 66.4 °F 30.08 in Calm   1.0 mph 98% 0.00 in
07:59 67.1 °F 66.6 °F 30.08 in Calm   2.0 mph 98% 0.00 in
08:04 67.3 °F 66.7 °F 30.08 in Calm     98% 0.00 in
08:09 67.3 °F 66.7 °F 30.08 in Calm   1.0 mph 98% 0.00 in
08:14 67.5 °F 66.9 °F 30.08 in Calm     98% 0.00 in
08:16 67.5 °F 66.6 °F 30.08 in Calm   1.0 mph 97% 0.00 in
08:21 67.6 °F 67.1 °F 30.08 in Calm     98% 0.00 in
08:26 67.8 °F 67.3 °F 30.08 in Calm   1.0 mph 98% 0.00 in
08:31 67.8 °F 66.9 °F 30.08 in Calm     97% 0.00 in
08:36 68.2 °F 67.6 °F 30.08 in Calm     98% 0.00 in
08:41 68.2 °F 67.6 °F 30.08 in SE 0.9 mph 1.0 mph 98% 0.00 in
08:47 68.2 °F 67.3 °F 30.08 in ENE 2.0 mph 3.0 mph 97% 0.00 in
08:52 68.2 °F 67.3 °F 30.08 in Calm     97% 0.00 in
08:57 68.7 °F 67.8 °F 30.08 in Calm   2.0 mph 97% 0.00 in
09:03 69.4 °F 68.2 °F 30.07 in ESE 2.0 mph 3.0 mph 96% 0.00 in
09:08 70.5 °F 69.3 °F 30.07 in Calm   1.0 mph 96% 0.00 in
09:13 71.6 °F 69.8 °F 30.07 in SSE 2.0 mph 2.0 mph 94% 0.00 in
09:18 72.9 °F 70.7 °F 30.08 in Calm     93% 0.00 in
09:23 74.3 °F 72.1 °F 30.08 in Calm     93% 0.00 in
09:28 74.7 °F 70.2 °F 30.07 in Calm   2.0 mph 86% 0.00 in
09:33 74.8 °F 71.4 °F 30.07 in SE 0.9 mph 1.0 mph 89% 0.00 in
09:43 74.7 °F 71.6 °F 30.07 in Calm     90% 0.00 in
09:48 74.8 °F 72.0 °F 30.07 in Calm   1.0 mph 91% 0.00 in
09:53 75.4 °F 72.0 °F 30.07 in Calm   1.0 mph 89% 0.00 in
09:58 75.9 °F 72.1 °F 30.07 in Calm     88% 0.00 in
10:03 76.5 °F 71.2 °F 30.07 in Calm     84% 0.00 in
10:08 77.4 °F 72.5 °F 30.06 in Calm   1.0 mph 85% 0.00 in
10:13 77.7 °F 72.9 °F 30.06 in Calm   1.0 mph 85% 0.00 in
10:18 77.5 °F 73.4 °F 30.06 in Calm     87% 0.00 in
10:23 77.5 °F 72.7 °F 30.06 in Calm     85% 0.00 in
10:28 77.4 °F 71.8 °F 30.06 in Calm     83% 0.00 in
10:31 77.5 °F 71.6 °F 30.06 in Calm     82% 0.00 in
10:34 77.5 °F 71.6 °F 30.06 in Calm   1.0 mph 82% 0.00 in
10:39 77.5 °F 72.3 °F 30.06 in Calm     84% 0.00 in
10:44 77.5 °F 72.7 °F 30.06 in Calm     85% 0.00 in
10:49 77.4 °F 72.9 °F 30.06 in Calm   1.0 mph 86% 0.00 in
10:54 76.8 °F 73.0 °F 30.06 in Calm     88% 0.00 in
10:59 76.5 °F 70.2 °F 30.06 in ENE 0.9 mph 1.0 mph 81% 0.00 in
11:04 76.5 °F 70.5 °F 30.06 in Calm   1.0 mph 82% 0.00 in
11:09 76.3 °F 71.1 °F 30.06 in Calm   2.0 mph 84% 0.00 in
11:14 76.3 °F 71.8 °F 30.06 in Calm   2.0 mph 86% 0.00 in
11:19 76.6 °F 70.0 °F 30.06 in Calm   1.0 mph 80% 0.00 in
11:24 76.8 °F 70.5 °F 30.07 in Calm   1.0 mph 81% 0.00 in
11:29 76.6 °F 68.5 °F 30.06 in West 0.9 mph 5.0 mph 76% 0.00 in
11:34 76.1 °F 70.2 °F 30.06 in Calm   1.0 mph 82% 0.00 in
11:39 75.9 °F 70.0 °F 30.06 in SE 2.0 mph 2.0 mph 82% 0.00 in
11:44 75.7 °F 69.1 °F 30.06 in Calm   1.0 mph 80% 0.00 in
11:49 75.6 °F 68.5 °F 30.06 in Calm   2.0 mph 79% 0.00 in
11:54 75.6 °F 68.5 °F 30.06 in Calm     79% 0.00 in
11:59 75.9 °F 70.3 °F 30.06 in Calm   2.0 mph 83% 0.00 in
12:12 79.0 °F 69.6 °F 30.06 in Calm   1.0 mph 73% 0.00 in
12:17 78.6 °F 70.3 °F 30.05 in Calm   1.0 mph 76% 0.00 in
12:22 78.4 °F 69.8 °F 30.05 in Calm   1.0 mph 75% 0.00 in
12:27 78.1 °F 69.4 °F 30.05 in Calm   1.0 mph 75% 0.00 in
12:32 77.5 °F 68.9 °F 30.05 in Calm     75% 0.00 in
12:37 77.4 °F 69.6 °F 30.05 in Calm     77% 0.00 in
12:42 77.0 °F 68.9 °F 30.05 in Calm   2.0 mph 76% 0.00 in
12:53 76.3 °F 69.3 °F 30.04 in Calm     79% 0.00 in
12:58 76.5 °F 69.8 °F 30.04 in Calm   1.0 mph 80% 0.00 in
13:03 76.6 °F 70.3 °F 30.04 in Calm     81% 0.00 in
13:08 76.6 °F 69.6 °F 30.04 in Calm   1.0 mph 79% 0.00 in
13:13 76.6 °F 69.6 °F 30.04 in Calm     79% 0.00 in
13:18 76.8 °F 70.5 °F 30.04 in Calm     81% 0.00 in
13:23 77.4 °F 70.7 °F 30.04 in Calm     80% 0.00 in
13:28 77.9 °F 69.8 °F 30.03 in Calm   1.0 mph 76% 0.00 in
13:33 78.3 °F 72.3 °F 30.03 in Calm   1.0 mph 82% 0.00 in
13:38 78.3 °F 70.9 °F 30.03 in Calm     78% 0.00 in
13:43 78.4 °F 72.1 °F 30.03 in Calm   1.0 mph 81% 0.00 in
13:48 78.6 °F 70.9 °F 30.03 in Calm     77% 0.00 in
13:53 78.8 °F 69.8 °F 30.02 in Calm     74% 0.00 in
13:58 79.2 °F 70.9 °F 30.01 in Calm   1.0 mph 76% 0.00 in
14:03 79.2 °F 70.2 °F 30.01 in Calm   1.0 mph 74% 0.00 in
14:08 79.2 °F 69.3 °F 30.01 in Calm   1.0 mph 72% 0.00 in
14:13 79.0 °F 69.6 °F 30.01 in Calm   2.0 mph 73% 0.00 in
14:15 79.0 °F 70.0 °F 30.01 in West 0.9 mph 1.0 mph 74% 0.00 in
14:20 78.8 °F 69.1 °F 30.01 in Calm   1.0 mph 72% 0.00 in
14:21 78.6 °F 68.4 °F 30.01 in Calm   1.0 mph 71% 0.00 in
14:26 78.6 °F 68.9 °F 30.01 in Calm     72% 0.00 in
14:31 78.6 °F 69.3 °F 30.00 in Calm   1.0 mph 73% 0.00 in
14:36 78.8 °F 69.1 °F 30.00 in Calm   1.0 mph 72% 0.00 in
14:41 79.2 °F 71.8 °F 30.00 in Calm   2.0 mph 78% 0.00 in
14:46 79.3 °F 68.4 °F 29.99 in Calm   3.0 mph 69% 0.00 in
14:51 79.5 °F 69.6 °F 29.99 in Calm   1.0 mph 72% 0.00 in
14:56 79.5 °F 70.2 °F 29.98 in Calm   1.0 mph 73% 0.00 in
15:01 79.5 °F 68.0 °F 29.98 in Calm     68% 0.00 in
15:06 79.5 °F 68.0 °F 29.98 in Calm   1.0 mph 68% 0.00 in
15:11 79.5 °F 68.9 °F 29.97 in Calm   1.0 mph 70% 0.00 in
15:16 79.7 °F 68.2 °F 29.97 in NNW 0.9 mph 3.0 mph 68% 0.00 in
15:17 79.9 °F 69.3 °F 29.97 in NNW 0.9 mph 1.0 mph 70% 0.00 in
15:22 80.1 °F 69.4 °F 29.97 in Calm   4.0 mph 70% 0.00 in
15:27 80.1 °F 68.2 °F 29.97 in Calm     67% 0.00 in
15:33 80.2 °F 70.0 °F 29.97 in Calm   1.0 mph 71% 0.00 in
15:38 80.4 °F 68.5 °F 29.96 in SE 0.9 mph 2.0 mph 67% 0.00 in
15:43 80.4 °F 68.0 °F 29.96 in NE 4.0 mph 4.0 mph 66% 0.00 in
15:48 80.4 °F 67.6 °F 29.96 in Calm   1.0 mph 65% 0.00 in
15:53 80.6 °F 69.1 °F 29.96 in Calm   1.0 mph 68% 0.00 in
15:58 80.6 °F 68.2 °F 29.96 in Calm   2.0 mph 66% 0.00 in
16:03 80.2 °F 68.4 °F 29.96 in NNW 0.9 mph 3.0 mph 67% 0.00 in
16:08 80.1 °F 67.3 °F 29.96 in West 0.9 mph 1.0 mph 65% 0.00 in
16:13 80.4 °F 67.6 °F 29.96 in Calm   1.0 mph 65% 0.00 in
16:18 80.8 °F 68.7 °F 29.95 in WSW 0.9 mph 1.0 mph 67% 0.00 in
16:23 80.8 °F 68.4 °F 29.95 in WSW 0.9 mph 2.0 mph 66% 0.00 in
16:28 80.8 °F 67.5 °F 29.95 in Calm   2.0 mph 64% 0.00 in
16:33 80.8 °F 68.0 °F 29.94 in WNW 0.9 mph 2.0 mph 65% 0.00 in
16:38 80.6 °F 68.2 °F 29.95 in West 2.0 mph 2.0 mph 66% 0.00 in
16:43 80.2 °F 66.6 °F 29.95 in Calm   1.0 mph 63% 0.00 in
16:48 80.4 °F 67.6 °F 29.94 in Calm   1.0 mph 65% 0.00 in
16:53 80.8 °F 68.4 °F 29.94 in Calm     66% 0.00 in
16:58 81.0 °F 67.6 °F 29.94 in Calm   2.0 mph 64% 0.00 in
17:03 80.8 °F 68.7 °F 29.94 in West 0.9 mph 1.0 mph 67% 0.00 in
17:08 80.6 °F 69.1 °F 29.93 in West 0.9 mph 2.0 mph 68% 0.00 in
17:13 80.2 °F 67.8 °F 29.93 in Calm   1.0 mph 66% 0.00 in
17:18 80.2 °F 70.0 °F 29.93 in Calm   1.0 mph 71% 0.00 in
17:23 80.1 °F 68.2 °F 29.93 in West 0.9 mph 2.0 mph 67% 0.00 in
17:29 79.9 °F 69.3 °F 29.93 in Calm     70% 0.00 in
17:34 79.5 °F 68.5 °F 29.92 in WSW 0.9 mph 5.0 mph 69% 0.00 in
17:39 79.5 °F 69.3 °F 29.93 in Calm   1.0 mph 71% 0.00 in
17:44 79.3 °F 68.7 °F 29.93 in WSW 0.9 mph 1.0 mph 70% 0.00 in
17:49 79.2 °F 68.9 °F 29.93 in Calm   1.0 mph 71% 0.00 in
17:54 79.0 °F 69.3 °F 29.93 in West 2.0 mph 4.0 mph 72% 0.00 in
17:59 78.6 °F 68.9 °F 29.92 in Calm   2.0 mph 72% 0.00 in
18:04 78.3 °F 68.0 °F 29.92 in NW 0.9 mph 3.0 mph 71% 0.00 in
18:07 78.1 °F 68.4 °F 29.92 in WNW 0.9 mph 1.0 mph 72% 0.00 in
18:12 77.7 °F 68.4 °F 29.92 in Calm   1.0 mph 73% 0.00 in
18:17 77.7 °F 68.0 °F 29.92 in South 0.9 mph 2.0 mph 72% 0.00 in
18:22 77.9 °F 68.9 °F 29.91 in Calm   1.0 mph 74% 0.00 in
18:24 77.7 °F 68.7 °F 29.91 in Calm   1.0 mph 74% 0.00 in
18:29 77.7 °F 68.0 °F 29.91 in Calm   1.0 mph 72% 0.00 in
18:34 77.9 °F 68.5 °F 29.92 in Calm     73% 0.00 in
18:39 77.7 °F 68.7 °F 29.92 in Calm   1.0 mph 74% 0.00 in
18:44 77.7 °F 67.6 °F 29.92 in Calm   4.0 mph 71% 0.00 in
18:49 77.7 °F 68.7 °F 29.91 in Calm   2.0 mph 74% 0.00 in
18:54 78.1 °F 68.4 °F 29.91 in Calm   1.0 mph 72% 0.00 in
18:59 78.1 °F 69.1 °F 29.91 in Calm   1.0 mph 74% 0.00 in
19:04 77.9 °F 68.9 °F 29.91 in Calm   1.0 mph 74% 0.00 in
19:09 77.5 °F 68.5 °F 29.92 in WNW 0.9 mph 1.0 mph 74% 0.00 in
19:14 77.2 °F 68.2 °F 29.91 in East 0.9 mph 1.0 mph 74% 0.00 in
19:19 76.8 °F 68.7 °F 29.91 in Calm   1.0 mph 76% 0.00 in
19:24 76.3 °F 67.5 °F 29.91 in Calm   2.0 mph 74% 0.00 in
19:29 76.1 °F 66.7 °F 29.90 in South 2.0 mph 2.0 mph 73% 0.00 in
19:34 76.6 °F 67.6 °F 29.91 in Calm   2.0 mph 74% 0.00 in
19:39 76.8 °F 67.5 °F 29.90 in NW 2.0 mph 2.0 mph 73% 0.00 in
19:44 76.6 °F 67.6 °F 29.90 in Calm   1.0 mph 74% 0.00 in
19:49 76.5 °F 67.6 °F 29.89 in Calm   3.0 mph 74% 0.00 in
19:54 76.3 °F 67.8 °F 29.89 in SSE 2.9 mph 4.0 mph 75% 0.00 in
19:59 76.3 °F 66.9 °F 29.89 in Calm   2.0 mph 73% 0.00 in
20:05 76.5 °F 66.7 °F 29.90 in Calm   4.0 mph 72% 0.00 in
20:10 76.8 °F 66.7 °F 29.90 in Calm   4.0 mph 71% 0.00 in
20:15 77.2 °F 67.8 °F 29.91 in Calm   2.0 mph 73% 0.00 in
20:20 76.8 °F 67.5 °F 29.91 in NE 2.0 mph 3.0 mph 73% 0.00 in
20:25 76.6 °F 67.6 °F 29.91 in East 0.9 mph 2.0 mph 74% 0.00 in
20:30 76.3 °F 68.2 °F 29.90 in SE 2.9 mph 3.0 mph 76% 0.00 in
20:35 75.9 °F 67.8 °F 29.91 in Calm     76% 0.00 in
20:40 75.7 °F 67.6 °F 29.90 in Calm   1.0 mph 76% 0.00 in
20:45 75.6 °F 68.2 °F 29.90 in Calm   1.0 mph 78% 0.00 in
20:50 75.4 °F 67.6 °F 29.90 in Calm   1.0 mph 77% 0.00 in
20:55 75.2 °F 67.8 °F 29.90 in West 0.9 mph 2.0 mph 78% 0.00 in
21:00 75.0 °F 68.4 °F 29.91 in Calm   1.0 mph 80% 0.00 in
21:05 74.8 °F 68.9 °F 29.92 in Calm   1.0 mph 82% 0.00 in
21:10 74.1 °F 68.9 °F 29.93 in East 0.9 mph 2.0 mph 84% 0.01 in
21:16 72.9 °F 69.1 °F 29.94 in Calm   1.0 mph 88% 0.03 in
21:21 72.1 °F 69.1 °F 29.93 in NE 2.0 mph 2.0 mph 90% 0.06 in
21:26 71.4 °F 68.9 °F 29.94 in SSE 0.9 mph 1.0 mph 92% 0.07 in
21:31 71.1 °F 68.9 °F 29.93 in Calm   1.0 mph 93% 0.07 in
21:36 70.7 °F 68.9 °F 29.94 in Calm     94% 0.07 in
21:41 70.3 °F 68.5 °F 29.94 in Calm   1.0 mph 94% 0.07 in
WheeWeather.com
Compliments of Weather Underground - 2.5 mb